www.pogodaiklimat.ru

Погода и климат >> Архив погоды >> Великобритания >> Южный Уист


ПОГОДА на Южном Уисте

  • Прогноз погоды на Южном Уисте
  • Монитор погоды на Южном Уисте

АРХИВ ПОГОДЫ на Южном Уисте

Время (UTC), дата Ветер
(напр.,м/с)
 
Видим.   Явления Облачность Т
(С)
Тd
(С)
f
(%)
Тe
(С)
Тes
(С)
Комфортность P
(гПа)
Po
(гПа)
Тmin
(С)
Tmax
(С)
R
(мм)
R24
(мм)
S
(см)
04 17.02 Ю 12
{20}
14 км н/о +10.0 +8.4 90 +5 +5 998.1 997.6
05 17.02 Ю 14
{19}
6000 м дым н/о +9.8 +8.5 92 +4 +4 997.1 996.6
06 17.02 Ю 10
{17}
2300 м ливневой дождь н/о +9.2 +8.4 95 +4 +4 996.6 996.2 +8.5 6
07 17.02 Ю 14
{17}
9000 м в посл. час дождь н/о +9.4 +8.5 94 +4 +4 995.8 995.3
08 17.02 Ю 13
{18}
10 км н/о +9.6 +8.2 91 +4 +4 995.5 995.0
09 17.02 Ю 13
{19}
13 км дым н/о +9.7 +8.0 89 +4 +4 995.0 994.6
10 17.02 Ю 13
{19}
4000 м слаб. ливневой дождь н/о +9.0 +7.7 92 +3 +3 994.8 994.3
11 17.02 Ю 11
{17}
5000 м дождь н/о +8.9 +8.1 95 +4 +4 994.5 994.0
12 17.02 Ю 13
{17}
9000 м слаб. дождь н/о +8.2 +7.2 93 +2 +2 994.8 994.3 5
13 17.02 Ю 10
{19}
29 км в посл. час дождь н/о +7.5 +6.2 91 +2 +2 995.0 994.5
14 17.02 Ю 14
{17}
11 км н/о +9.1 +6.7 85 +3 +3 995.0 994.5
15 17.02 Ю 14
{19}
8000 м дым н/о +9.0 +5.8 80 +3 +3 995.1 994.7
16 17.02 Ю 14-20
{20}
11 км дым н/о +8.8 +5.7 81 +3 +3 995.2 994.7
17 17.02 Ю 14
{19}
7000 м слаб. ливневой дождь н/о +8.2 +5.6 84 +2 +2 994.8 994.3
18 17.02 Ю 13
{20}
14 км в посл. час дождь н/о +8.3 +6.0 85 +3 +3 994.6 994.1 +9.9 6
19 17.02 Ю 12
{18}
13 км н/о +8.4 +5.9 84 +3 +3 994.5 994.0
20 17.02 Ю 13
{20}
13 км н/о +8.8 +5.8 81 +3 +3 994.2 993.7
21 17.02 Ю 13-19
{21}
40 км н/о +8.2 +5.4 82 +2 +2 993.6 993.1
22 17.02 Ю 14
{19}
16 км н/о +8.3 +5.7 84 +2 +2 993.3 992.8
23 17.02 Ю 15-24
{24}
3800 м ливневой дождь н/о +7.8 +6.2 90 +1 +1 992.4 991.9
00 18.02 Ю 17
{23}
10 км слаб. ливневой дождь н/о +7.8 +6.3 90 +1 +1 992.5 992.0 0.8
01 18.02 ЮЗ 12-17
{20}
14 км ливневой дождь н/о +7.3 +5.5 88 +1 +1 992.7 992.2
02 18.02 Ю 14
{19}
11 км в посл. час дождь н/о +8.1 +4.9 80 +2 +2 992.6 992.2
03 18.02 Ю 16
{23}
5000 м слаб. ливневой дождь н/о +7.8 +4.9 82 +1 +1 992.4 991.9
04 18.02 Ю 16
{24}
5000 м слаб. ливневой дождь н/о +7.8 +5.1 83 +1 +1 991.7 991.2
05 18.02 Ю 15-21
{21}
4600 м слаб. морось н/о +7.9 +6.2 89 +1 +1 991.2 990.7
00 19.02 СЗ 7 24 км н/о +7.4 +4.7 83 +3 +3 1005.5 1005.1 0.2
02 19.02 З 7 13 км н/о +7.6 +4.1 78 +3 +3 1006.3 1005.8
03 19.02 З 6 21 км н/о +7.6 +3.6 76 +3 +3 1006.5 1006.0
04 19.02 З 4 5000 м дым н/о +7.8 +4.0 77 +5 +5 1006.7 1006.3
05 19.02 З 4 20 км н/о +7.2 +4.6 84 +4 +4 1006.8 1006.3
06 19.02 ЮЗ 2 18 км в посл. час дождь н/о +6.8 +4.9 88 +4 +4 1006.7 1006.2 +6.3 1
07 19.02 Ю 2 5000 м ливневой дождь н/о +6.3 +4.9 91 +4 +4 1006.7 1006.2
08 19.02 Ю 4 21 км в посл. час дождь н/о +6.2 +5.4 95 +2 +2 1007.0 1006.5
09 19.02 Ю 3 10 км в посл. час дождь н/о +6.9 +6.1 95 +4 +4 1007.2 1006.7
10 19.02 Ю 4 35 км слаб. ливневой дождь н/о +6.9 +6.2 95 +3 +3 1007.1 1006.6
11 19.02 0 в посл. час дождь со снегом н/о 1006.7
12 19.02 0 30 км н/о 1006.4
13 19.02 0 в посл. час морось н/о 1006.0
14 19.02 0 14 км слаб. дождь н/о +8.2 +6.6 90 1005.8 1005.3
15 19.02 Ю 8 13 км слаб. дождь н/о +7.6 +5.9 89 +3 +3 1005.2 1004.7
16 19.02 Ю 10 15 км слаб. ливневой дождь н/о +7.5 +5.5 87 +2 +2 1004.3 1003.8
17 19.02 Ю 10
{14}
10 км слаб. дождь н/о +7.2 +5.7 90 +1 +1 1003.2 1002.7
18 19.02 ЮВ 12-17
{17}
6000 м слаб. дождь со снегом н/о +7.1 +5.5 90 +1 +1 1002.1 1001.6
19 19.02 ЮВ 14-19
{19}
5000 м слаб. дождь со снегом н/о +7.2 +6.1 93 +1 +1 1001.3 1000.8
20 19.02 ЮВ 14
{21}
5000 м дождь н/о +7.5 +6.4 93 +1 +1 1000.4 999.9
21 19.02 ЮВ 15-20
{21}
6000 м слаб. дождь н/о +8.0 +6.9 93 +2 +2 999.2 998.7
22 19.02 Ю 13
{19}
5000 м дождь н/о +8.7 +7.7 93 +3 +3 998.3 997.9
23 19.02 Ю 12-18
{19}
4200 м дождь н/о +9.1 +8.4 95 +4 +4 997.7 997.2
00 20.02 Ю 12
{16}
2800 м дождь н/о +9.3 +8.9 97 +4 +4 997.5 997.0 9
01 20.02 Ю 12
{17}
2200 м дождь н/о +9.6 +9.3 98 +4 +4 997.4 996.9
02 20.02 Ю 13
{18}
2600 м дождь н/о +10.0 +9.7 98 +5 +5 997.3 996.9
03 20.02 Ю 15
{21}
3600 м слаб. дождь н/о +10.1 +9.6 97 +5 +5 997.2 996.7
04 20.02 Ю 15
{21}
5000 м слаб. дождь н/о +10.1 +9.4 95 +5 +5 997.3 996.9
05 20.02 Ю 15
{20}
4200 м в посл. час дождь н/о +10.3 +9.3 94 +5 +5 997.5 997.0
06 20.02 Ю 13
{19}
10 км дым н/о +10.5 +9.2 92 +6 +6 997.6 997.1 +7.0 12
07 20.02 Ю 13
{18}
5000 м ливневой дождь н/о +10.1 +9.2 94 +5 +5 997.4 996.9
08 20.02 Ю 12
{16}
8000 м слаб. дождь н/о +9.9 +9.1 95 +5 +5 997.5 997.0
09 20.02 Ю 13
{17}
6000 м в посл. час дождь н/о +10.0 +9.2 95 +5 +5 997.8 997.4
10 20.02 Ю 13
{18}
2000 м ливневой дождь н/о +9.9 +9.5 97 +5 +5 998.1 997.7
11 20.02 0
{17}
3200 м дождь н/о +10.1 +9.7 97 998.6 998.2
12 20.02 Ю 11
{17}
2000 м в посл. час дождь н/о +9.8 +9.6 99 +5 +5 999.6 999.1 2
13 20.02 ЮЗ 7 9000 м в посл. час дождь н/о +10.1 +9.5 96 +6 +6 1000.6 1000.1
14 20.02 ЮЗ 8 8000 м дымка н/о +9.7 +8.8 94 +5 +5 1002.3 1001.9
15 20.02 ЮЗ 11
{15}
16 км н/о +9.8 +7.5 86 +5 +5 1003.2 1002.8
16 20.02 ЮЗ 8
{15}
10 км дым н/о +9.5 +7.6 88 +5 +5 1003.7 1003.2
17 20.02 ЮЗ 8 10 км дым н/о +9.1 +7.6 90 +5 +5 1004.6 1004.1
18 20.02 ЮЗ 9 15 км н/о +8.8 +7.5 92 +4 +4 1005.0 1004.5 +10.6 2
19 20.02 Ю 8 7000 м дым н/о +8.9 +7.8 93 +4 +4 1005.6 1005.1
20 20.02 Ю 7 10 км дым н/о +8.7 +7.8 94 +4 +4 1006.2 1005.7
21 20.02 Ю 8 15 км в посл. час дождь н/о +8.7 +8.1 96 +4 +4 1006.4 1005.9
22 20.02 Ю 7 18 км н/о +8.6 +7.4 92 +4 +4 1006.5 1006.1
23 20.02 Ю 7 18 км н/о +9.2 +7.9 92 +5 +5 1006.7 1006.2
00 21.02 Ю 8 40 км н/о +10.3 +7.9 85 +6 +6 1006.7 1006.2 0.0
01 21.02 Ю 11
{14}
50 км н/о +10.9 +8.7 86 +7 +7 1006.8 1006.3
02 21.02 Ю 12
{15}
18 км н/о +10.7 +9.2 90 +6 +6 1006.9 1006.4
03 21.02 Ю 11
{16}
15 км н/о +10.9 +9.6 92 +6 +6 1007.0 1006.5
04 21.02 Ю 11
{15}
20 км н/о +11.1 +9.8 92 +7 +7 1007.3 1006.8
05 21.02 Ю 12
{15}
4800 м в посл. час дождь н/о +10.9 +9.8 93 +6 +6 1008.0 1007.5
06 21.02 Ю 11
{16}
19 км н/о +10.7 +9.9 95 +6 +6 1008.5 1008.0 +8.0 0.0
07 21.02 Ю 10
{14}
18 км н/о +11.1 +10.1 94 +7 +7 1009.2 1008.7
08 21.02 Ю 11
{14}
4500 м дым н/о +11.1 +10.1 94 +7 +7 1010.0 1009.5
09 21.02 Ю 10
{14}
25 км н/о +11.1 +10.2 94 +7 +7 1011.0 1010.5
10 21.02 Ю 10
{13}
23 км н/о +11.3 +10.1 92 +7 +7 1012.0 1011.5
11 21.02 Ю 11
{15}
16 км н/о +11.5 +10.1 91 +7 +7 1012.4 1011.9
12 21.02 Ю 12
{16}
24 км в посл. час дождь н/о +12.0 +10.3 89 +8 +8 1013.1 1012.6 0.0
13 21.02 Ю 13
{17}
28 км н/о +11.9 +10.0 88 +8 +8 1013.3 1012.8
14 21.02 Ю 13
{17}
30 км н/о +12.1 +9.8 86 +8 +8 1014.0 1013.5
15 21.02 Ю 13
{19}
35 км н/о +12.1 +9.8 86 +8 +8 1014.0 1013.6
16 21.02 Ю 13
{18}
35 км н/о +12.0 +9.6 85 +8 +8 1014.7 1014.2
17 21.02 Ю 13
{19}
35 км н/о +12.1 +9.4 84 +8 +8 1014.9 1014.4
18 21.02 Ю 12-18
{18}
27 км н/о +11.5 +9.0 85 +7 +7 1015.7 1015.2 +12.3 0.0
19 21.02 Ю 13
{19}
18 км слаб. ливневой дождь н/о +11.6 +8.9 83 +7 +7 1016.2 1015.7
20 21.02 Ю 12
{18}
24 км в посл. час дождь н/о +11.1 +8.1 82 +7 +7 1016.4 1015.9
21 21.02 Ю 12
{16}
17 км н/о +10.4 +8.0 85 +6 +6 1017.1 1016.6
22 21.02 Ю 16
{21}
17 км н/о +10.3 +7.7 84 +5 +5 1017.0 1016.5
23 21.02 Ю 16-22
{22}
16 км н/о +9.9 +7.5 85 +4 +4 1017.4 1016.9
00 22.02 Ю 14
{21}
14 км н/о +9.6 +7.5 87 +4 +4 1018.5 1018.0 0.0
01 22.02 Ю 14
{20}
16 км н/о +9.7 +7.4 86 +4 +4 1018.0 1017.5
02 22.02 ЮВ 15-21
{21}
16 км н/о +9.7 +7.4 86 +4 +4 1017.2 1016.7
03 22.02 ЮВ 16
{23}
20 км н/о +10.4 +7.8 84 +5 +5 1016.7 1016.2
04 22.02 Ю 16
{24}
15 км в посл. час дождь н/о +10.0 +8.4 90 +4 +4 1016.0 1015.6
05 22.02 Ю 18-24
{24}
16 км в посл. час дождь н/о +11.1 +8.5 84 +6 +6 1016.3 1015.8
06 22.02 Ю 16-23
{24}
15 км н/о +10.9 +8.1 83 +6 +6 1016.7 1016.2 +9.5 0.2
07 22.02 Ю 15-21
{22}
16 км н/о +11.0 +8.2 83 +6 +6 1017.5 1017.0
08 22.02 Ю 16
{21}
16 км н/о +11.4 +8.3 81 +7 +7 1018.3 1017.9
09 22.02 Ю 15-21
{23}
14 км н/о +11.1 +8.5 84 +6 +6 1019.4 1018.9
10 22.02 Ю 15
{20}
18 км н/о +11.7 +8.8 82 +7 +7 1020.2 1019.7
11 22.02 Ю 15-20
{21}
21 км н/о +12.0 +9.0 82 +8 +8 1020.6 1020.1
12 22.02 Ю 13
{21}
20 км н/о +12.1 +9.2 82 +8 +8 1021.5 1021.1
13 22.02 Ю 14
{20}
19 км н/о +12.0 +9.1 82 +8 +8 1021.9 1021.4
14 22.02 Ю 12
{19}
20 км н/о +11.9 +8.6 80 +8 +8 1021.9 1021.4
15 22.02 Ю 13
{17}
16 км н/о +11.1 +8.4 83 +6 +6 1021.3 1020.8
16 22.02 Ю 11
{15}
19 км н/о +11.7 +9.1 84 +8 +8 1020.9 1020.4
17 22.02 Ю 13
{17}
16 км н/о +11.2 +8.6 84 +7 +7 1020.4 1020.0
18 22.02 Ю 13
{19}
9000 м слаб. ливневой дождь н/о +10.6 +8.9 89 +6 +6 1020.5 1020.0 +12.3 0.8
19 22.02 Ю 15
{20}
17 км в посл. час дождь н/о +11.2 +8.2 82 +6 +6 1019.9 1019.4
20 22.02 Ю 16
{23}
17 км н/о +11.1 +7.4 78 +6 +6 1019.6 1019.1
21 22.02 Ю 17-24
{24}
19 км н/о +12.1 +8.0 76 +7 +7 1019.3 1018.8
22 22.02 Ю 17-22
{25}
18 км н/о +12.0 +8.1 77 +7 +7 1018.9 1018.4
23 22.02 Ю 16-23
{24}
18 км н/о +11.8 +8.0 78 +7 +7 1018.6 1018.1
00 23.02 Ю 16-22
{24}
20 км н/о +12.0 +7.8 75 +7 +7 1017.9 1017.4 0.4
01 23.02 Ю 16
{24}
18 км н/о +11.5 +7.4 76 +7 +7 1017.3 1016.8
02 23.02 Ю 18-23
{24}
20 км н/о +11.9 +6.9 71 +7 +7 1016.2 1015.7
03 23.02 Ю 17-24
{25}
20 км н/о +11.9 +6.4 69 +7 +7 1016.0 1015.5
04 23.02 Ю 19-27
{27}
25 км н/о +12.7 +5.7 62 +8 +8 1015.9 1015.4
05 23.02 Ю 18-24
{27}
24 км н/о +12.1 +5.5 64 +8 +8 1015.9 1015.4
06 23.02 Ю 18-24
{26}
24 км н/о +12.3 +5.3 62 +8 +8 1015.3 1014.8 +10.4 0.4
07 23.02 Ю 19-26
{26}
23 км н/о +12.2 +5.2 62 +8 +8 1014.9 1014.4
08 23.02 Ю 18-24
{27}
20 км н/о +12.1 +5.9 66 +7 +7 1015.7 1015.2
09 23.02 Ю 16
{25}
17 км н/о +11.4 +6.7 73 +7 +7 1016.2 1015.7
10 23.02 Ю 16-21
{21}
15 км н/о +11.1 +7.0 76 +6 +6 1016.9 1016.4
11 23.02 Ю 14
{22}
12 км н/о +10.7 +7.6 81 +6 +6 1017.5 1017.0
12 23.02 Ю 13
{19}
14 км н/о +11.2 +8.3 82 +7 +7 1018.0 1017.5
13 23.02 Ю 13
{19}
15 км н/о +11.4 +8.8 84 +7 +7 1018.5 1018.0
14 23.02 Ю 14
{17}
12 км н/о +10.8 +8.8 87 +6 +6 1019.0 1018.5
15 23.02 Ю 12
{17}
12 км н/о +10.7 +8.7 87 +6 +6 1019.4 1018.9
16 23.02 Ю 13
{16}
13 км н/о +10.9 +8.6 86 +6 +6 1019.9 1019.5
17 23.02 Ю 12
{16}
12 км н/о +10.5 +8.4 87 +6 +6 1020.9 1020.4
18 23.02 З 9
{17}
14 км в посл. час дождь н/о +8.8 +7.6 92 +4 +4 1022.9 1022.4 +12.7 1
19 23.02 ЮЗ 9 18 км н/о +8.8 +7.2 90 +4 +4 1024.6 1024.1
20 23.02 ЮЗ 7 13 км н/о +8.5 +7.1 91 +4 +4 1026.1 1025.6
21 23.02 ЮЗ 7 9000 м н/о +8.4 +6.9 90 +4 +4 1027.0 1026.5
00 24.02 Ю 5 14 км н/о +5.6 +5.0 96 +1 +1 1029.7 1029.2
02 24.02 Ю 6 15 км н/о +6.1 +5.5 96 +1 +1 1030.8 1030.3
03 24.02 Ю 5 14 км н/о +5.1 +4.5 96 0 0 1031.1 1030.6
04 24.02 Ю 5 17 км н/о +5.1 +4.2 94 0 0 1031.0 1030.5

 

Местоположение метеостанции Южный Уист (Великобритания): широта 57.33 долгота -7.37 высота над уровнем моря 4 м.

В архиве по умолчанию представлена погода на Южном Уисте за последнюю неделю. Архивные данные за месяц целиком и за предыдущие месяцы, начиная с января 2011 года, Вы можете получить, выбрав интересующий диапазон дат из раскрывающегося списка и нажав кнопку "Ввод!".


*Определитесь, кто Вы:
робот инопланетянин человек

Внимание! Время в таблицах - всемирное. Для получения местного времени необходимо прибавить поправку, которая равна 0 ч.

Смотрите также архив погоды в соседних городах и на ближайших метеорологических станциях:

Погода на Скае (Великобритания) (95 км)
Погода на Тири (Великобритания) (97 км)
Погода на Перевале Bealach Na Ba (Великобритания) (102 км)
Погода в Сторновее (Великобритания) (117 км)
Погода в Олтбее (Великобритания) (120 км)
Погода на Озере Гласкарнок (Великобритания) (155 км)
Погода на Горе Аонах Мор (Великобритания) (156 км)
Погода на Станции Tulloch Bridge (Великобритания) (169 км)
Погода в Порт-Эллене (Великобритания) (196 км)
Погода на Алтнахарре (Великобритания) (204 км)

Пояснения к столбцам:

Ветер - указаны скорость ветра в м/с - средняя за 10 мин, порывы в срок и между сроками (в фигурных скобках) и направление, откуда дует ветер: С - северный, СВ - северо-восточный, В - восточный, ЮВ - юго-восточный, Ю - южный, ЮЗ - юго-западный, З - западный, СЗ - северо-западный.
Видимость - горизонтальная дальность видимости в метрах или километрах. При видимости от 1 до 10 км при отсутствии осадков обычно наблюдается дымка, при ухудшении видимости до 1 км и менее - туман. В сухую погоду видимость может ухудшаться дымом, пылью или мглою.
Явления - указаны атмосферные явления, наблюдавшиеся в срок или в последний час перед сроком; фигурными скобками обозначены явления, наблюдавшиеся между сроками (за 1-3 часа до срока); квадратными скобками обозначены град или гололедные отложения с указанием их диаметра в мм.
Облачность - указаны через наклонную черту общая и нижняя облачность в баллах и высота нижней границы облаков в метрах; квадратными скобками обозначены формы облаков: Ci - перистые, Cs - перисто-слоистые, Cc - перисто-кучевые, Ac - высококучевые, As - высокослоистые, Sc - слоисто-кучевые, Ns - слоисто-дождевые, Cu - кучевые, Cb - кучево-дождевые. Подробнее классификацию облаков см. в Атласе облаков (PDF).
T - Температура воздуха - температура, измеренная на высоте 2 м над землей.
Td - Температура точки росы - температура, при понижении до которой содержащийся в воздухе водяной пар достигнет насыщения.
f - Относительная влажность воздуха - влажноcть воздуха, измеренная на высоте 2 м над землей.
Te - Эффективная температура - температура, которую ощущает одетый по сезону человек в тени. Характеристика душности погоды. При расчете учитывается влияние влажности воздуха и скорости ветра на теплоощущения человека.
Tes - Эффективная температура на солнце - температура, которую ощущает человек, с поправкой на солнечный нагрев. Характеристика знойности погоды. Зависит от высоты солнца над горизонтом, облачности и скорости ветра. Ночью, в пасмурную погоду, а также при ветре 12 м/с и более поправка равна нулю.
P - Атмосферное давление - приведенное к уровню моря атмосферное давление.
Po - Атмосферное давление - измеренное на уровне метеостанции атмосферное давление.
Tmin - Минимальная температура - минимум температуры воздуха на высоте 2 м над землей.
Tmax - Максимальная температура - максимум температуры воздуха на высоте 2 м над землей.
R - Количество осадков - Количество выпавших осадков за период времени, мм. При наведении курсора мыши на число - период времени, за который выпало указанное количество осадков.
R24 - Количество осадков - Количество выпавших осадков за 24 часа, мм.
S - Снежный покров - Высота снежного покрова, см. При наведении курсора мыши на число - состояние снежного покрова и степень покрытия местности в баллах.